Time,TemperatureF,DewpointF,PressureIn,WindDirection,WindDirectionDegrees,WindSpeedMPH,WindSpeedGustMPH,Humidity,HourlyPrecipIn,Conditions,Clouds,dailyrainin,SolarRadiationWatts/m^2,SoftwareType,DateUTC
2013-07-03 06:37:00,57.0,55.0,29.87,ESE,123,0.0,0.0,94,0.00,,,0.00,7.000000,,2013-07-03 13:37:00,
2013-07-03 07:02:00,57.0,55.0,29.87,ESE,123,0.0,0.0,94,0.00,,,0.00,23.000000,,2013-07-03 14:02:00,
2013-07-03 07:22:00,58.0,56.0,29.87,ESE,123,0.0,0.0,94,0.00,,,0.00,28.000000,,2013-07-03 14:22:00,
2013-07-03 07:33:00,59.0,57.0,29.87,ESE,123,0.0,0.0,94,0.00,,,0.00,35.000000,,2013-07-03 14:33:00,
2013-07-03 07:44:00,59.0,57.0,29.86,ESE,123,0.0,0.0,92,0.00,,,0.00,39.000000,,2013-07-03 14:44:00,
2013-07-03 07:53:00,60.0,58.0,29.87,ESE,123,0.0,0.0,92,0.00,,,0.00,44.000000,,2013-07-03 14:53:00,
2013-07-03 08:02:00,60.0,58.0,29.87,ESE,123,0.0,0.0,92,0.00,,,0.00,44.000000,,2013-07-03 15:02:00,
2013-07-03 08:34:00,63.0,59.0,29.88,ESE,123,0.0,0.0,86,0.00,,,0.00,54.000000,,2013-07-03 15:34:00,
2013-07-03 08:53:00,64.0,59.0,29.88,ESE,123,0.0,0.0,83,0.00,,,0.00,56.000000,,2013-07-03 15:53:00,
2013-07-03 09:02:00,66.0,60.0,29.88,SW,229,0.0,0.0,80,0.00,,,0.00,76.000000,,2013-07-03 16:02:00,
2013-07-03 09:12:00,68.0,61.0,29.87,SSW,208,0.0,0.0,79,0.00,,,0.00,121.000000,,2013-07-03 16:12:00,
2013-07-03 09:33:00,70.0,61.0,29.87,SSW,210,0.0,0.0,73,0.00,,,0.00,134.000000,,2013-07-03 16:33:00,
2013-07-03 09:44:00,72.0,61.0,29.86,SSW,192,0.0,0.0,69,0.00,,,0.00,97.000000,,2013-07-03 16:44:00,
2013-07-03 09:53:00,72.0,61.0,29.86,SSW,192,0.0,0.0,69,0.00,,,0.00,97.000000,,2013-07-03 16:53:00,
2013-07-03 10:12:00,73.0,62.0,29.87,WSW,249,0.0,0.0,68,0.00,,,0.00,146.000000,,2013-07-03 17:12:00,
2013-07-03 10:21:00,73.0,62.0,29.87,WSW,249,0.0,0.0,68,0.00,,,0.00,146.000000,,2013-07-03 17:21:00,
2013-07-03 10:34:00,73.0,62.0,29.87,WSW,249,0.0,0.0,68,0.00,,,0.00,146.000000,,2013-07-03 17:34:00,
2013-07-03 11:46:00,81.0,64.0,29.85,West,271,1.0,3.0,56,0.00,,,0.00,264.000000,,2013-07-03 18:46:00,
2013-07-03 12:03:00,82.0,64.0,29.85,SW,229,1.0,3.0,54,0.00,,,0.00,227.000000,,2013-07-03 19:03:00,
2013-07-03 12:13:00,83.0,65.0,29.84,SSE,158,1.0,5.0,54,0.00,,,0.00,921.000000,,2013-07-03 19:13:00,
2013-07-03 12:24:00,85.0,65.0,29.83,West,265,1.0,4.0,52,0.00,,,0.00,877.000000,,2013-07-03 19:24:00,
2013-07-03 12:34:00,85.0,65.0,29.83,West,265,1.0,4.0,52,0.00,,,0.00,877.000000,,2013-07-03 19:34:00,
2013-07-03 12:44:00,88.0,65.0,29.83,SE,132,2.0,4.0,47,0.00,,,0.00,875.000000,,2013-07-03 19:44:00,
2013-07-03 12:53:00,87.0,65.0,29.83,ESE,108,4.0,10.0,48,0.00,,,0.00,891.000000,,2013-07-03 19:53:00,
2013-07-03 13:01:00,87.0,65.0,29.83,ESE,108,4.0,10.0,48,0.00,,,0.00,891.000000,,2013-07-03 20:01:00,
2013-07-03 13:12:00,87.0,65.0,29.83,ESE,108,4.0,10.0,48,0.00,,,0.00,891.000000,,2013-07-03 20:12:00,
2013-07-03 13:34:00,88.0,65.0,29.83,ESE,115,1.0,8.0,46,0.00,,,0.00,877.000000,,2013-07-03 20:34:00,
2013-07-03 13:46:00,87.0,63.0,29.83,SE,132,6.0,12.0,45,0.00,,,0.00,907.000000,,2013-07-03 20:46:00,
2013-07-03 13:55:00,87.0,63.0,29.83,SE,132,6.0,12.0,45,0.00,,,0.00,907.000000,,2013-07-03 20:55:00,
2013-07-03 14:02:00,87.0,63.0,29.83,SE,134,6.0,10.0,45,0.00,,,0.00,904.000000,,2013-07-03 21:02:00,
2013-07-03 14:11:00,87.0,64.0,29.83,South,179,2.0,10.0,47,0.00,,,0.00,904.000000,,2013-07-03 21:11:00,
2013-07-03 14:33:00,88.0,64.0,29.82,SSE,168,3.0,10.0,45,0.00,,,0.00,891.000000,,2013-07-03 21:33:00,
2013-07-03 14:42:00,88.0,63.0,29.82,South,181,4.0,10.0,44,0.00,,,0.00,738.000000,,2013-07-03 21:42:00,
2013-07-03 15:01:00,87.0,62.0,29.82,SE,126,3.0,10.0,44,0.00,,,0.00,805.000000,,2013-07-03 22:01:00,
2013-07-03 15:12:00,86.0,61.0,29.82,South,186,4.0,8.0,43,0.00,,,0.00,867.000000,,2013-07-03 22:12:00,
2013-07-03 15:22:00,84.0,60.0,29.81,South,190,3.0,9.0,44,0.00,,,0.00,840.000000,,2013-07-03 22:22:00,
2013-07-03 15:44:00,83.0,59.0,29.81,SSW,205,4.0,10.0,45,0.00,,,0.00,802.000000,,2013-07-03 22:44:00,
2013-07-03 15:53:00,83.0,59.0,29.81,SSW,205,4.0,10.0,45,0.00,,,0.00,802.000000,,2013-07-03 22:53:00,
2013-07-03 16:02:00,84.0,60.0,29.80,SE,125,4.0,9.0,45,0.00,,,0.00,756.000000,,2013-07-03 23:02:00,
2013-07-03 16:12:00,84.0,60.0,29.80,ESE,109,4.0,10.0,45,0.00,,,0.00,708.000000,,2013-07-03 23:12:00,
2013-07-03 16:21:00,84.0,60.0,29.80,ESE,109,4.0,10.0,45,0.00,,,0.00,708.000000,,2013-07-03 23:21:00,
2013-07-03 16:34:00,84.0,60.0,29.80,ESE,109,4.0,10.0,45,0.00,,,0.00,708.000000,,2013-07-03 23:34:00,
2013-07-03 16:43:00,84.0,60.0,29.79,South,186,3.0,10.0,45,0.00,,,0.00,670.000000,,2013-07-03 23:43:00,
2013-07-03 16:52:00,85.0,61.0,29.78,East,100,2.0,7.0,44,0.00,,,0.00,633.000000,,2013-07-03 23:52:00,
2013-07-03 17:02:00,85.0,61.0,29.78,East,100,2.0,7.0,44,0.00,,,0.00,633.000000,,2013-07-04 00:02:00,
2013-07-03 17:11:00,85.0,61.0,29.77,SSE,159,3.0,8.0,44,0.00,,,0.00,608.000000,,2013-07-04 00:11:00,
2013-07-03 17:22:00,85.0,61.0,29.77,SSE,159,3.0,8.0,44,0.00,,,0.00,608.000000,,2013-07-04 00:22:00,
2013-07-03 17:33:00,85.0,59.0,29.76,ESE,123,3.0,10.0,42,0.00,,,0.00,642.000000,,2013-07-04 00:33:00,
2013-07-03 17:43:00,85.0,59.0,29.76,ESE,123,3.0,10.0,42,0.00,,,0.00,642.000000,,2013-07-04 00:43:00,
2013-07-03 17:53:00,84.0,58.0,29.76,SSE,150,5.0,13.0,42,0.00,,,0.00,482.000000,,2013-07-04 00:53:00,
2013-07-03 18:02:00,84.0,58.0,29.76,SSE,150,5.0,13.0,42,0.00,,,0.00,482.000000,,2013-07-04 01:02:00,
2013-07-03 18:23:00,83.0,59.0,29.75,ESE,123,2.0,8.0,45,0.00,,,0.00,454.000000,,2013-07-04 01:23:00,
2013-07-03 18:33:00,83.0,59.0,29.75,SSE,149,4.0,10.0,45,0.00,,,0.00,388.000000,,2013-07-04 01:33:00,
2013-07-03 18:43:00,82.0,59.0,29.76,SSE,158,2.0,11.0,46,0.00,,,0.00,336.000000,,2013-07-04 01:43:00,
2013-07-03 18:52:00,82.0,59.0,29.76,South,181,3.0,7.0,46,0.00,,,0.00,265.000000,,2013-07-04 01:52:00,
2013-07-03 19:02:00,82.0,59.0,29.76,South,181,3.0,7.0,46,0.00,,,0.00,265.000000,,2013-07-04 02:02:00,
2013-07-03 19:12:00,82.0,60.0,29.76,South,172,4.0,7.0,47,0.00,,,0.00,237.000000,,2013-07-04 02:12:00,
2013-07-03 19:22:00,82.0,60.0,29.76,South,172,4.0,7.0,47,0.00,,,0.00,237.000000,,2013-07-04 02:22:00,
2013-07-03 19:34:00,81.0,59.0,29.76,SE,127,2.0,10.0,48,0.00,,,0.00,197.000000,,2013-07-04 02:34:00,
2013-07-03 19:44:00,80.0,59.0,29.76,SE,126,5.0,9.0,49,0.00,,,0.00,77.000000,,2013-07-04 02:44:00,
2013-07-03 19:52:00,78.0,59.0,29.76,ESE,119,3.0,8.0,52,0.00,,,0.00,33.000000,,2013-07-04 02:52:00,
2013-07-03 20:02:00,78.0,59.0,29.76,ESE,119,3.0,8.0,52,0.00,,,0.00,33.000000,,2013-07-04 03:02:00,
2013-07-03 20:12:00,75.0,58.0,29.76,ESE,122,5.0,9.0,55,0.00,,,0.00,21.000000,,2013-07-04 03:12:00,
2013-07-03 20:34:00,74.0,58.0,29.77,SSE,156,2.0,5.0,57,0.00,,,0.00,14.000000,,2013-07-04 03:34:00,
2013-07-03 20:44:00,73.0,56.0,29.77,East,82,1.0,7.0,56,0.00,,,0.00,5.000000,,2013-07-04 03:44:00,
2013-07-03 21:01:00,73.0,58.0,29.76,SE,142,1.0,3.0,59,0.00,,,0.00,0.000000,,2013-07-04 04:01:00,
2013-07-03 21:11:00,73.0,58.0,29.76,SE,142,1.0,3.0,59,0.00,,,0.00,0.000000,,2013-07-04 04:11:00,
2013-07-03 21:22:00,73.0,58.0,29.76,SE,142,1.0,3.0,59,0.00,,,0.00,0.000000,,2013-07-04 04:22:00,
2013-07-03 21:33:00,73.0,58.0,29.76,SE,142,1.0,3.0,59,0.00,,,0.00,0.000000,,2013-07-04 04:33:00,